TAF and METAR

Decoding for American and Canadian METARs and TAFs is not fully implemented.

Could not understand the following METAR

KOTG 230856Z AUTO 26011KT 10SM FEW010 OVC015 09/08 A2994 RMK AO2 SLP145 T00940083 51022
No TAF available for Worthington Municipal Airport
Worthington Municipal Airport in United States of America at 480m

Latest 5 airports